Regional Weather Roundup
Issued by NWS

Home | Current Version | Previous Version | Text Only | Print | Product List | Glossary Off
Versions: 1 2 3 4 5 6 7 8 9 10 11 12 13 14 15 16 17 18 19 20 21 22 23 24 25 26 27 28 29 30 31 32 33 34 35 36 37 38 39 40 41 42 43 44 45 46 47 48 49 50

000
ASUS45 KBOU 182207
RWRCO

WEATHER ROUNDUP FOR COLORADO
NATIONAL WEATHER SERVICE DENVER/BOULDER CO
400 PM MDT SAT APR 18 2015

NOTE: "FAIR" INDICATES FEW OR NO CLOUDS BELOW 12000 FEET WITH NO
SIGNIFICANT WEATHER AND/OR OBSTRUCTIONS TO VISIBILITY.

COZ001>005-013-030-031-182300-
...NORTHWEST COLORADO...

CITY           SKY/WX    TMP DP  RH WIND       PRES   REMARKS
CRAIG          LGT SNOW  33  32  96 W5        30.00R VSB 3/4 WCI  29
HAYDEN         CLOUDY    34  30  86 NW3       29.99R
MEEKER         LGT SNOW  34  32  92 S5        30.01R FOG     WCI  30
MOUNT WERNER   NOT AVBL
STEAMBOAT SPGS CLOUDY    34  31  90 CALM      29.98R
WALDEN         PTSUNNY   34  28  80 W5        29.94S WCI  30
$$

COZ006>008-011-182300-
...WEST CENTRAL VALLEYS...

CITY           SKY/WX    TMP DP  RH WIND       PRES   REMARKS
GRAND JUNCTION CLOUDY    44  38  79 S9        29.99F
MONTROSE       CLOUDY    39  36  89 W3        30.03S
EAGLE          CLOUDY    39  34  81 CALM      29.99F
RIFLE          HVY SNOW  34  32  92 CALM      30.03R VSB 1/4
DELTA          CLOUDY    41  37  86 NE6       30.02F
NUCLA          CLOUDY    48  37  66 E5        30.04F
$$

COZ017>023-064>068-182300-
...SOUTHWEST COLORADO...

CITY           SKY/WX    TMP DP  RH WIND       PRES   REMARKS
DURANGO        CLOUDY    51  29  42 N8        29.92F
CORTEZ         MOSUNNY   55  37  50 W15       29.98F
PAGOSA SPRINGS CLOUDY    42  28  57 SW7       29.96F
TELLURIDE      LGT SNOW  31  30  97 W14G21    30.05S VSB 3/4 WCI  21
WOLF CREEK PAS SNOW      23  21  93 SW13G18   30.01S VSB 1/4 WCI  11
$$

COZ009-010-012-014-032>034-037-058>063-182300-
...CENTRAL COLORADO...

CITY           SKY/WX    TMP DP  RH WIND       PRES   REMARKS
ASPEN          FLURRIES  34  28  79 N6        29.96F WCI  29
BUENA VISTA    CLOUDY    37  23  58 CALM      29.90F
COPPER MTN     CLOUDY    27  19  74 W22G31    29.95S WCI  12
BERTHOUD PASS  CLOUDY    18  10  73 MISG      29.95S VSB<1/4
COTTONWOOD PAS CLOUDY    36  23  60 CALM      29.92F
GUNNISON       CLOUDY    34  28  80 N3        30.00S
KREMMLING      CLOUDY    41  30  65 W13       29.94S
LEADVILLE      CLOUDY    32  18  56 NW14      29.91F WCI  22
MONARCH PASS   CLOUDY    19  18  93 MISG      30.05S
SALIDA         CLOUDY    43  24  48 W16       29.97S
SUNLIGHT       SNOW     N/A N/A N/A CALM      30.04S VSB 1/2
WILKERSON PASS SNOW      23  21  93 CALM      29.95F VSB 1/2
$$

COZ069>075-182300-
...SAN LUIS VALLEY/SANGRE DE CRISTO MOUNTAINS...

CITY           SKY/WX    TMP DP  RH WIND       PRES   REMARKS
ALAMOSA        LGT SNOW  38  29  70 W10       29.92R
LA VETA PASS   CLOUDY    30  23  74 S10G22    29.91F WCI  21
SAGUACHE       PTSUNNY   43  27  52 NW16G22   29.91S
$$

COZ035-036-038>040-182300-
...NORTHERN COLORADO FRONT RANGE...

CITY           SKY/WX    TMP DP  RH WIND       PRES   REMARKS
DENVER INTL AP HAIL      43  37  79 N18       29.86S
DMNS CITY PARK   N/A     50  33  52 NE10G18   29.85R
AURORA         PTSUNNY   49  30  48 N6        29.86F
FRONT RANGE AP PTSUNNY   52  37  58 N9        29.86F
ERIE MUNI ARPT MOSUNNY   53  29  39 N14       29.85F
BOULDER MUN AP MOSUNNY   52  32  46 N7        29.85F
CENTENNIAL     PTSUNNY   50  33  52 NE13G21   29.85F
BROOMFIELD     PTSUNNY   54  36  50 N12       29.86S
FORT COLLINS   PTSUNNY   48  36  61 W3        29.89S
LONGMONT       PTSUNNY   55  35  48 N14       29.88F
$$

COZ041-046-047-076>085-087-088-182300-
...PIKES PEAK/PALMER DIVIDE AND SOUTHERN FOOTHILLS...

CITY           SKY/WX    TMP DP  RH WIND       PRES   REMARKS
COLO. SPRINGS  PTSUNNY   46  34  62 SE15      29.85F
A. F. ACADEMY  PTSUNNY   47  28  48 NE12G22   29.84F
ELLICOTT       PTSUNNY  N/A N/A N/A W14       29.86F
FALCON         PTSUNNY   44  27  51 N7        29.88S
FORT CARSON    PTSUNNY   48  31  53 VRB1      29.84F
LIMON          PTSUNNY   48  33  56 N7        29.83F
MONUMENT HILL  CLOUDY    37  32  81 W8          N/A
TRINIDAD       PTSUNNY   54  21  27 W14       29.82F
$$

COZ042>045-048>051-090-091-182300-
...NORTHEAST COLORADO...

CITY           SKY/WX    TMP DP  RH WIND       PRES   REMARKS
GREELEY ARPT   PTSUNNY   46  36  66 SW3       29.88S
AKRON          CLOUDY    49  39  68 N8        29.83F
BURLINGTON     PTSUNNY   51  40  65 W23       29.81R
WRAY           CLOUDY    57  38  48 E13       29.80F
STERLING       CLOUDY    46  43  87 N6        29.85F
HOLYOKE        PTSUNNY   59  45  58 SE7       29.80R THUNDER
FORT MORGAN    CLOUDY    55  35  47 NE6       29.84F
$$

COZ086-089-092>099-182300-
...SOUTHEAST COLORADO...

CITY           SKY/WX    TMP DP  RH WIND       PRES   REMARKS
PUEBLO         CLOUDY    51  31  46 NE24      29.83F
LA JUNTA       CLOUDY    59  25  27 N14G20    29.82F
LAMAR          CLOUDY    58  31  35 VRB7      29.79F
SPRINGFIELD      N/A     52  35  52 E7        29.83F
$$


USA.gov is the U.S. government's official web portal to all federal, state and local government web resources and services.